Weather History for KERI - January, 2013

Change the Weather History Date:

Monday, January 7, 2013

  Actual Average Record
Temperature  
Mean Temperature 32 °F 28 °F  
Max Temperature 35 °F 34 °F 65 °F (2008)
Min Temperature 29 °F 21 °F -10 °F (2014)
Degree Days  
Heating Degree Days 33 37  
Month to date heating degree days 246 259  
Since 1 July heating degree days 2268 2427  
Cooling Degree Days 0 0  
Month to date cooling degree days 0 0  
Year to date cooling degree days 0 0  
Moisture  
Dew Point 23 °F    
Average Humidity 73    
Maximum Humidity 82    
Minimum Humidity 63    
Precipitation  
Precipitation 0.00 in 0.10 in 1.47 in (1998)
Month to date precipitation 0.11 0.76  
Year to date precipitation 0.11 0.76  
Snow  
Snow 0.00 in 1.10 in - ()
Month to date snowfall 1.0 7.3  
Since 1 July snowfall 24.5 43.5  
Snow Depth 3.00 in    
Sea Level Pressure  
Sea Level Pressure 30.33 in    
Wind  
Wind Speed 10 mph (SSW)    
Max Wind Speed 25 mph    
Max Gust Speed 35 mph    
Visibility 9 miles    
Events      
T = Trace of Precipitation, MM = Missing Value Source: NWS Daily Summary

Daily Weather History Graph

Daily Weather History Graph

Search for Another Location

Airport or City:

Trip Planner

Search our weather history database for the weather conditions in past years. The results will help you decide how hot, cold, wet, or windy it might be!

Date:

Astronomy

Jan. 07, 2013 Rise Set
Actual Time 7:48 AM EST 5:05 PM EST
Civil Twilight 7:17 AM EST 5:37 PM EST
Nautical Twilight 6:42 AM EST 6:11 PM EST
Astronomical Twilight 6:08 AM EST 6:45 PM EST
Moon 3:09 AM EST (1/7) 1:16 PM EST (1/7)
Length of Visible Light 10h 19m
Length of Day
9h 16m
Waning Crescent, 23% of the Moon is Illuminated
Jan 7
Waning Crescent
Jan 11
New
Jan 18
First Quarter
Jan 26
Full
Feb 3
Last Quarter

Hourly Weather History & Observations

Time (EST) Temp. Windchill Dew Point Humidity Pressure Visibility Wind Dir Wind Speed Gust Speed Precip Events Conditions
12:51 AM 35.1 °F 27.9 °F 30.0 °F 82% 30.21 in 8.0 mi WNW 9.2 mph - N/A   Overcast
1:51 AM 34.0 °F 27.2 °F 28.0 °F 79% 30.24 in 10.0 mi NW 8.1 mph - N/A   Overcast
2:51 AM 32.0 °F 24.2 °F 25.0 °F 75% 30.29 in 10.0 mi NW 9.2 mph - N/A   Overcast
3:51 AM 30.0 °F 24.1 °F 23.0 °F 75% 30.32 in 10.0 mi NNW 5.8 mph - N/A   Overcast
4:51 AM 30.0 °F 24.1 °F 21.9 °F 72% 30.34 in 10.0 mi North 5.8 mph - N/A   Overcast
5:51 AM 30.0 °F 25.2 °F 21.9 °F 72% 30.35 in 10.0 mi North 4.6 mph - N/A   Overcast
6:51 AM 30.0 °F 25.2 °F 21.9 °F 72% 30.38 in 10.0 mi NNE 4.6 mph - N/A   Overcast
7:51 AM 30.0 °F - 21.9 °F 72% 30.39 in 10.0 mi Calm Calm - N/A   Overcast
8:08 AM 30.2 °F - 21.2 °F 69% 30.37 in 10.0 mi Calm Calm - N/A   Overcast
8:15 AM 30.2 °F - 21.2 °F 69% 30.37 in 10.0 mi Calm Calm - N/A   Overcast
8:22 AM 30.2 °F - 21.2 °F 69% 30.37 in 10.0 mi Calm Calm - N/A   Overcast
8:51 AM 30.0 °F 26.5 °F 23.0 °F 75% 30.41 in 10.0 mi SSE 3.5 mph - N/A   Overcast
9:51 AM 30.0 °F 24.1 °F 23.0 °F 75% 30.43 in 10.0 mi SSE 5.8 mph - N/A   Overcast
10:51 AM 30.2 °F 24.3 °F 23.0 °F 75% 30.41 in 10.0 mi South 5.8 mph - N/A   Overcast
11:51 AM 32.0 °F 24.8 °F 25.0 °F 75% 30.41 in 10.0 mi South 8.1 mph - N/A   Overcast
12:22 PM 33.8 °F 27.0 °F 24.8 °F 70% 30.37 in 10.0 mi South 8.1 mph - N/A   Overcast
12:51 PM 33.1 °F 24.4 °F 26.1 °F 75% 30.38 in 10.0 mi SSW 11.5 mph - N/A   Overcast
1:51 PM 34.0 °F 25.5 °F 25.0 °F 70% 30.36 in 10.0 mi SSW 11.5 mph - N/A   Overcast
2:51 PM 34.0 °F 24.2 °F 24.1 °F 67% 30.36 in 9.0 mi SSW 15.0 mph 20.7 mph N/A   Overcast
3:51 PM 34.0 °F 24.6 °F 24.1 °F 67% 30.34 in 9.0 mi SW 13.8 mph - N/A   Scattered Clouds
4:51 PM 34.0 °F 26.6 °F 23.0 °F 64% 30.31 in 9.0 mi SSW 9.2 mph - N/A   Clear
5:51 PM 32.0 °F 23.0 °F 21.9 °F 66% 30.31 in 10.0 mi South 11.5 mph - N/A   Clear
6:51 PM 32.0 °F 20.8 °F 21.9 °F 66% 30.29 in 9.0 mi South 17.3 mph 27.6 mph N/A   Clear
7:51 PM 32.0 °F 19.8 °F 21.9 °F 66% 30.28 in 9.0 mi South 20.7 mph 33.4 mph N/A   Clear
8:51 PM 30.9 °F 18.1 °F 21.9 °F 69% 30.27 in 8.0 mi South 21.9 mph 29.9 mph N/A   Clear
9:51 PM 30.0 °F 18.7 °F 21.9 °F 72% 30.26 in 8.0 mi South 16.1 mph 29.9 mph N/A   Clear
10:51 PM 30.0 °F 18.7 °F 21.9 °F 72% 30.25 in 8.0 mi South 16.1 mph 24.2 mph N/A   Clear
11:51 PM 28.9 °F 18.2 °F 21.0 °F 72% 30.25 in 8.0 mi South 13.8 mph - N/A   Clear